Home   Weather   Suzhou   Past weeks

Flag for China Past Weather in Suzhou, Jiangsu, China — Yesterday and Last 2 Weeks

Now
54 °F

Light rain. Clear.


Feels Like: 53 °F
Forecast: 46 / 63 °F
Wind: 3 mph from Southwest

Location: Shanghai Hongqiao Airport

Current Time: Dec 4, 2016 at 8:04:02 am

Latest Report: Dec 4, 2016 at 7:30 am


Visibility: 4 mi

Pressure: 30.15 "Hg

Humidity: 94%

Dew Point: 52 °F

Location of SuzhouLocation

Past Weather in Suzhou — Graph

°F

Suzhou Temperature Yesterday

Maximum temperature yesterday: 63 °F (at 1:30 pm)
Minimum temperature yesterday: 43 °F (at 5:00 am)
Average temperature yesterday: 54 °F

High & Low Weather Summary for the Past Weeks

 TemperatureHumidityPressure
High72 °F (Nov 19, 12:30 pm)100% (Nov 20, 2:00 am)30.51 "Hg (Nov 20, 2:00 am)
Low34 °F (Nov 24, 6:00 am)42% (Dec 1, 2:30 pm)29.92 "Hg (Nov 21, 1:30 pm)
Average52 °F78%30.29 "Hg
* Reported Nov 19 7:00 am — Dec 4 7:00 am, Suzhou, Weather by CustomWeather, © 2016

Note: Actual official high and low records may vary slightly from our data, if they occured in-between our weather recording intervals... More about our weather records

Advertising

Suzhou Weather History for the Previous 24 Hours

Scroll right to see more
 ConditionsComfort  
Time TempWeatherWind HumidityBarometerVisibility
7:00 am
Sun, Dec 4
54 °FLight rain. Fog.6 mph94%30.15 "Hg3 mi
6:30 am54 °FLight rain. Fog.3 mph94%30.12 "Hg3 mi
6:00 am54 °FLight rain. Clear.1 mph94%30.12 "Hg4 mi
5:30 am54 °FLight rain. Clear.3 mph94%30.12 "Hg4 mi
5:00 am54 °FClear.No wind94%30.12 "Hg5 mi
4:30 am54 °FLight rain. Clear.1 mph94%30.12 "HgN/A
4:00 am54 °FLight rain. Clear.1 mph94%30.12 "HgN/A
3:30 am54 °FClear.1 mph94%30.12 "Hg10 mi
3:00 am54 °FLight rain. Clear.1 mph94%30.12 "HgN/A
2:30 am54 °FClear.1 mph94%30.12 "Hg10 mi
2:00 am54 °FClear.1 mph94%30.12 "Hg10 mi
1:30 am54 °FClear.3 mph88%30.12 "Hg10 mi
1:00 am55 °FClear.3 mph82%30.15 "Hg10 mi
12:30 am55 °FClear.3 mph77%30.15 "Hg10 mi
12:00 am55 °FClear.3 mph77%30.15 "Hg10 mi
11:30 pm
Sat, Dec 3
55 °FClear.3 mph72%30.15 "Hg10 mi
11:00 pm55 °FClear.3 mph72%30.18 "Hg10 mi
10:30 pm55 °FClear.3 mph72%30.18 "Hg10 mi
10:00 pm55 °FClear.3 mph72%30.18 "Hg10 mi
9:30 pm55 °FClear.3 mph67%30.18 "Hg10 mi
9:00 pm55 °FClear.3 mph67%30.21 "Hg10 mi
8:30 pm55 °FClear.6 mph67%30.21 "Hg10 mi
8:00 pm55 °FClear.3 mph67%30.21 "Hg10 mi
7:30 pm55 °FClear.6 mph67%30.21 "Hg10 mi
7:00 pm55 °FClear.6 mph67%30.21 "Hg10 mi
6:30 pm57 °FClear.8 mph59%30.21 "Hg10 mi
6:00 pm57 °FClear.8 mph63%30.21 "Hg10 mi
5:30 pm57 °FClear.6 mph63%30.21 "Hg10 mi
5:00 pm57 °FClear.6 mph59%30.21 "Hg10 mi
4:30 pm57 °FSunny.6 mph59%30.21 "Hg10 mi
4:00 pm59 °FPassing clouds.6 mph55%30.21 "HgN/A
3:30 pm61 °FSunny.8 mph52%30.21 "Hg10 mi
3:00 pm61 °FPassing clouds.6 mph52%30.21 "HgN/A
2:30 pm61 °FPassing clouds.8 mph48%30.21 "HgN/A
2:00 pm61 °FPassing clouds.6 mph48%30.21 "HgN/A
1:30 pm63 °FPassing clouds.6 mph49%30.24 "HgN/A
1:00 pm61 °FPassing clouds.6 mph48%30.24 "HgN/A
12:30 pm61 °FPassing clouds.8 mph52%30.27 "HgN/A
12:00 pm61 °FSunny.6 mph48%30.30 "Hg10 mi
11:30 am59 °FPassing clouds.8 mph55%30.30 "HgN/A
11:00 am59 °FPassing clouds.8 mph55%30.33 "HgN/A
10:00 am57 °FSunny.8 mph55%30.36 "Hg10 mi
9:00 am55 °FPassing clouds.6 mph63%30.36 "HgN/A
8:30 am54 °FSunny.6 mph67%30.36 "Hg10 mi
8:00 am54 °FSunny.1 mph67%30.36 "Hg10 mi
Weather by CustomWeather, © 2016

See weather overviewHow to use our weather pages